"Pseudo-MPEC" for P12oO5R

Created 2026 Aug 11 14:35:07 UT using Find_Orb

Click here for an explanation of pseudo-MPECs

 
 Astrometry: 
     P12oO5R*0C2026 08 04.38245320 32 40.482-18 48 23.17   ~84Co 21.34wXNEOCPF51
     P12oO5R 0C2026 08 04.39393520 32 39.656-18 48 37.20   ~84Co 21.61wXNEOCPF51
     P12oO5R 0C2026 08 04.40544020 32 38.865-18 48 50.91   ~84Co 21.44wXNEOCPF51
     P12oO5R 0C2026 08 04.41694920 32 38.018-18 49 05.01   ~84Co 21.41wXNEOCPF51
     P12oO5R 0C2026 08 04.55054320 32 28.578-18 51 44.78   ~84H5 21.74GVNEOCPF52
     P12oO5R 0C2026 08 04.55122620 32 28.526-18 51 45.45   ~84H5 21.94GVNEOCPF52
     P12oO5R 3C2026 08 07.48486520 29 13.118-19 49 59.11   ~87E5 21.66GVNEOCPT14
     P12oO5R 3C2026 08 07.48583620 29 13.062-19 50 00.10   ~87E5 21.65GVNEOCPT14
     P12oO5R 3C2026 08 07.48680620 29 12.995-19 50 01.29   ~87E5 21.73GVNEOCPT14
     P12oO5R 3C2026 08 07.48777720 29 12.932-19 50 02.37   ~87E5 21.88GVNEOCPT14

Station data:
(F51) Pan-STARRS 1, Haleakala  (N20.707234 W156.255910)  US/Hawaii.
   Observers J. Herman, T. Lowe, P. Minguez, A. Schultz, I. Smith. Measurers
   K. Chambers, T. de Boer, J. Fairlamb, H. Gao, M. Huber, C.-C. Lin, E.
   Magnier, Y. Ramanjooloo, R. Wainscoat, R. Weryk. 1.8-m Ritchey-Chrétien +
   CCD.
(F52) Pan-STARRS 2, Haleakala  (N20.707382 W156.255910)  US/Hawaii.
   Observers J. Herman, T. Lowe, P. Minguez, A. Schultz, I. Smith. Measurers
   K. Chambers, T. de Boer, J. Fairlamb, H. Gao, M. Huber, C.-C. Lin, E.
   Magnier, Y. Ramanjooloo, R. Wainscoat, R. Weryk. 1.8-m Ritchey-Chrétien +
   CCD.
(T14) Mauna Kea-UH/Tholen NEO Follow-Up (CFHT)  (N19.825252 W155.468876)
   US/Hawaii.  Observer R. Weryk. 3.6-m Canada-France-Hawaii Telescope.

Orbital elements:  P12oO5R
   Perihelion 2025 Jul 25.129715 +/- 57.7 TT =  3:06:47.3 (JD 2460881.629715)
Epoch 2026 Aug  7.0 TT = JDT 2461259.5   Earth MOID: 0.8087      AutoNEOCP
M 143.785443354 +/- 22              (J2000 ecliptic)
n   0.380515348 +/- 0.00499         Peri.   33.593271 +/- 19
a   1.886056056 +/- 0.0165          Node   128.837040 +/- 0.039
e   0.05471651 +/- 0.019            Incl.   21.197840 +/- 0.8
P   2.590/946.067d         H 20.01  G  0.15   U  9.2
q 1.782857647 +/- 0.0288    Q 1.989254464 +/- 0.0485
From 10 observations 2026 Aug. 4-7; mean residual 0".10
Residuals in arcseconds: 
260804 F51  .01+  .09+    260804 F52  .03+  .06-    260807 T14  .03+  .01-    
260804 F51  .13-  .07-    260804 F52  .03-  .08+    260807 T14  .09+  .05+    
260804 F51  .26+  .09+    260807 T14  .14-  .09-    
260804 F51  .14-  .14-    260807 T14  .02+  .05+    

Ephemerides (geocentric):
Date (UTC) HH   RA             Dec           delta  r     elong  mag " sig PA
---- --------  ------------   ------------  ------ ------ -----  --- --------
2026 08 11 15  20 24 47.688   -21 09 26.61  .97699 1.9728 164.7 22.0 5.31  21
2026 08 11 16  20 24 45.098   -21 10 13.51  .97714 1.9729 164.7 22.0 5.39  21
2026 08 11 17  20 24 42.509   -21 11 00.38  .97729 1.9729 164.6 22.0 5.47  21
2026 08 11 18  20 24 39.923   -21 11 47.23  .97744 1.9729 164.6 22.0 5.55  21
2026 08 11 19  20 24 37.339   -21 12 34.05  .97758 1.9729 164.5 22.0 5.63  21
2026 08 11 20  20 24 34.756   -21 13 20.85  .97773 1.9729 164.5 22.0 5.71  21
2026 08 11 21  20 24 32.176   -21 14 07.63  .97788 1.9729 164.4 22.0 5.79  21
2026 08 11 22  20 24 29.597   -21 14 54.37  .97803 1.9729 164.4 22.0 5.88  21
2026 08 11 23  20 24 27.021   -21 15 41.10  .97818 1.9730 164.3 22.0 5.96  21
2026 08 12 00  20 24 24.446   -21 16 27.79  .97833 1.9730 164.3 22.0 6.04  21
2026 08 12 01  20 24 21.874   -21 17 14.46  .97848 1.9730 164.2 22.0 6.12  21
2026 08 12 02  20 24 19.303   -21 18 01.11  .97863 1.9730 164.1 22.0 6.20  21
2026 08 12 03  20 24 16.735   -21 18 47.73  .97879 1.9730 164.1 22.0 6.29  20
2026 08 12 04  20 24 14.169   -21 19 34.33  .97894 1.9730 164.0 22.0 6.37  20
2026 08 12 05  20 24 11.604   -21 20 20.90  .97909 1.9730 164.0 22.0 6.46  20
2026 08 12 06  20 24 09.042   -21 21 07.44  .97924 1.9731 163.9 22.0 6.54  20
2026 08 12 07  20 24 06.482   -21 21 53.96  .97940 1.9731 163.9 22.0 6.62  20
2026 08 12 08  20 24 03.923   -21 22 40.45  .97955 1.9731 163.8 22.0 6.71  20
2026 08 12 09  20 24 01.367   -21 23 26.91  .97971 1.9731 163.8 22.0 6.79  20
2026 08 12 10  20 23 58.813   -21 24 13.35  .97986 1.9731 163.7 22.0 6.88  20
2026 08 12 11  20 23 56.261   -21 24 59.77  .98002 1.9731 163.7 22.0 6.97  20
2026 08 12 12  20 23 53.711   -21 25 46.15  .98017 1.9731 163.6 22.0 7.05  20
2026 08 12 13  20 23 51.163   -21 26 32.52  .98033 1.9732 163.6 22.0 7.14  20
2026 08 12 14  20 23 48.617   -21 27 18.85  .98048 1.9732 163.5 22.0 7.23  20
2026 08 12 15  20 23 46.074   -21 28 05.16  .98064 1.9732 163.4 22.0 7.31  20
2026 08 12 16  20 23 43.532   -21 28 51.44  .98080 1.9732 163.4 22.0 7.40  20
2026 08 12 17  20 23 40.993   -21 29 37.70  .98096 1.9732 163.3 22.0 7.49  20
2026 08 12 18  20 23 38.456   -21 30 23.93  .98111 1.9732 163.3 22.0 7.58  20
2026 08 12 19  20 23 35.920   -21 31 10.13  .98127 1.9733 163.2 22.0 7.66  20
2026 08 12 20  20 23 33.387   -21 31 56.31  .98143 1.9733 163.2 22.0 7.75  20
2026 08 12 21  20 23 30.857   -21 32 42.46  .98159 1.9733 163.1 22.0 7.84  20
2026 08 12 22  20 23 28.328   -21 33 28.58  .98175 1.9733 163.1 22.0 7.93  19
2026 08 12 23  20 23 25.801   -21 34 14.68  .98191 1.9733 163.0 22.0 8.02  19
2026 08 13 00  20 23 23.277   -21 35 00.75  .98207 1.9733 163.0 22.0 8.11  19
2026 08 13 01  20 23 20.755   -21 35 46.79  .98223 1.9733 162.9 22.0 8.20  19
2026 08 13 02  20 23 18.235   -21 36 32.80  .98239 1.9734 162.9 22.0 8.29  19
2026 08 13 03  20 23 15.717   -21 37 18.79  .98256 1.9734 162.8 22.0 8.38  19
2026 08 13 04  20 23 13.202   -21 38 04.75  .98272 1.9734 162.8 22.0 8.47  19
2026 08 13 05  20 23 10.688   -21 38 50.69  .98288 1.9734 162.7 22.0 8.56  19
2026 08 13 06  20 23 08.177   -21 39 36.60  .98305 1.9734 162.6 22.1 8.66  19
2026 08 13 07  20 23 05.668   -21 40 22.48  .98321 1.9734 162.6 22.1 8.75  19
2026 08 13 08  20 23 03.162   -21 41 08.33  .98337 1.9734 162.5 22.1 8.84  19
2026 08 13 09  20 23 00.657   -21 41 54.15  .98354 1.9735 162.5 22.1 8.93  19
2026 08 13 10  20 22 58.155   -21 42 39.95  .98370 1.9735 162.4 22.1 9.03  19
2026 08 13 11  20 22 55.655   -21 43 25.72  .98387 1.9735 162.4 22.1 9.12  19
2026 08 13 12  20 22 53.158   -21 44 11.46  .98403 1.9735 162.3 22.1 9.21  19
2026 08 13 13  20 22 50.662   -21 44 57.18  .98420 1.9735 162.3 22.1 9.30  19
2026 08 13 14  20 22 48.169   -21 45 42.87  .98437 1.9735 162.2 22.1 9.40  19